Starlink 11613

operational
NORAD ID: 63136 Int'l Des: 2025-043 Owner: SPXS Country: US Constellation: starlink
LEOCIRCULAR

Starlink 11613について

説明を読み込み中...

リアルタイム位置

3D地球を読み込み中...

次回通過

高度履歴

Altitude vs Time

uPlot chart will show altitude changes over time

軌道要素

1 63136U 25043E 25258.29704012 .00474184 00000-0 34722-2 0 9998
2 63136 43.0001 228.2635 0001799 277.9093 82.1571 15.70977444 31882
Epoch: Sep 15, 2025 • Age: 19 hours

現在のステータス

高度 358.1 km
速度 7.70 km/s
衛星直下点 42.22°N, 55.03°W
打ち上げ日 Mar 3, 2025
運用期間 0.5 years
タイプ internet

技術仕様

分類 Payload
質量 960.00 kg
乾燥質量 910.00 kg
総質量 960.00 kg
長さ 0.30 m
直径 4.10 m
スパン 29.00 m
形状 Box + pan
製造者 SPXS
バスタイプ Starlink V2MD
フェーズステータス In Orbit
所有者/国 SPXS/US

大規模コンステレーション

Loading constellations...